Year,Month,Day,Hour,Minute,Value (Times are PST for temperature in C)
2011,09,22,00,00,15.00
2011,09,22,00,01,15.00
2011,09,22,00,02,15.00
2011,09,22,00,03,15.00
2011,09,22,00,04,15.00
2011,09,22,00,05,15.00
2011,09,22,00,06,15.00
2011,09,22,00,07,15.00
2011,09,22,00,08,15.00
2011,09,22,00,09,15.00
2011,09,22,00,10,14.90
2011,09,22,00,11,14.90
2011,09,22,00,12,14.90
2011,09,22,00,13,14.80
2011,09,22,00,14,14.80
2011,09,22,00,15,14.80
2011,09,22,00,16,14.80
2011,09,22,00,17,14.80
2011,09,22,00,18,14.80
2011,09,22,00,19,14.80
2011,09,22,00,20,14.80
2011,09,22,00,21,14.80
2011,09,22,00,22,14.80
2011,09,22,00,23,14.80
2011,09,22,00,24,14.80
2011,09,22,00,25,14.80
2011,09,22,00,26,14.80
2011,09,22,00,27,14.80
2011,09,22,00,28,14.80
2011,09,22,00,29,14.70
2011,09,22,00,30,14.70
2011,09,22,00,31,14.70
2011,09,22,00,32,14.70
2011,09,22,00,33,14.70
2011,09,22,00,34,14.70
2011,09,22,00,35,14.70
2011,09,22,00,36,14.60
2011,09,22,00,37,14.60
2011,09,22,00,38,14.60
2011,09,22,00,39,14.60
2011,09,22,00,40,14.60
2011,09,22,00,41,14.60
2011,09,22,00,42,14.60
2011,09,22,00,43,14.60
2011,09,22,00,44,14.60
2011,09,22,00,45,14.60
2011,09,22,00,46,14.50
2011,09,22,00,47,14.50
2011,09,22,00,48,14.50
2011,09,22,00,49,14.50
2011,09,22,00,50,14.50
2011,09,22,00,51,14.50
2011,09,22,00,52,14.50
2011,09,22,00,53,14.60
2011,09,22,00,54,14.60
2011,09,22,00,55,14.60
2011,09,22,00,56,14.60
2011,09,22,00,57,14.70
2011,09,22,00,58,14.70
2011,09,22,00,59,14.70
2011,09,22,01,00,14.70
2011,09,22,01,01,14.70
2011,09,22,01,02,14.70
2011,09,22,01,03,14.80
2011,09,22,01,04,14.80
2011,09,22,01,05,14.80
2011,09,22,01,06,14.80
2011,09,22,01,07,14.80
2011,09,22,01,08,14.80
2011,09,22,01,09,14.90
2011,09,22,01,10,14.90
2011,09,22,01,11,14.90
2011,09,22,01,12,14.90
2011,09,22,01,13,15.00
2011,09,22,01,14,15.00
2011,09,22,01,15,15.00
2011,09,22,01,16,15.00
2011,09,22,01,17,15.00
2011,09,22,01,18,15.00
2011,09,22,01,19,15.00
2011,09,22,01,20,15.00
2011,09,22,01,21,15.00
2011,09,22,01,22,15.00
2011,09,22,01,23,15.00
2011,09,22,01,24,15.00
2011,09,22,01,25,15.00
2011,09,22,01,26,15.00
2011,09,22,01,27,15.00
2011,09,22,01,28,15.00
2011,09,22,01,29,15.00
2011,09,22,01,30,15.00
2011,09,22,01,31,15.00
2011,09,22,01,32,15.00
2011,09,22,01,33,15.00
2011,09,22,01,34,15.00
2011,09,22,01,35,15.00
2011,09,22,01,36,15.00
2011,09,22,01,37,15.00
2011,09,22,01,38,15.00
2011,09,22,01,39,15.00
2011,09,22,01,40,15.00
2011,09,22,01,41,15.00
2011,09,22,01,42,15.00
2011,09,22,01,43,15.00
2011,09,22,01,44,15.00
2011,09,22,01,45,15.00
2011,09,22,01,46,15.00
2011,09,22,01,47,15.00
2011,09,22,01,48,15.00
2011,09,22,01,49,15.00
2011,09,22,01,50,15.00
2011,09,22,01,51,15.00
2011,09,22,01,52,15.00
2011,09,22,01,53,15.00
2011,09,22,01,54,15.00
2011,09,22,01,55,15.00
2011,09,22,01,56,15.00
2011,09,22,01,57,15.00
2011,09,22,01,58,15.00
2011,09,22,01,59,15.00
2011,09,22,02,00,15.00
2011,09,22,02,01,15.00
2011,09,22,02,02,15.00
2011,09,22,02,03,15.00
2011,09,22,02,04,15.00
2011,09,22,02,05,15.00
2011,09,22,02,06,15.00
2011,09,22,02,07,15.00
2011,09,22,02,08,15.00
2011,09,22,02,09,15.00
2011,09,22,02,10,15.00
2011,09,22,02,11,15.00
2011,09,22,02,12,15.00
2011,09,22,02,13,15.00
2011,09,22,02,14,15.00
2011,09,22,02,15,15.00
2011,09,22,02,16,15.00
2011,09,22,02,17,15.00
2011,09,22,02,18,15.00
2011,09,22,02,19,15.00
2011,09,22,02,20,15.00
2011,09,22,02,21,15.00
2011,09,22,02,22,15.00
2011,09,22,02,23,15.00
2011,09,22,02,24,14.90
2011,09,22,02,25,14.90
2011,09,22,02,26,14.90
2011,09,22,02,27,14.80
2011,09,22,02,28,14.80
2011,09,22,02,29,14.80
2011,09,22,02,30,14.80
2011,09,22,02,31,14.80
2011,09,22,02,32,14.80
2011,09,22,02,33,14.80
2011,09,22,02,34,14.80
2011,09,22,02,35,14.80
2011,09,22,02,36,14.80
2011,09,22,02,37,14.80
2011,09,22,02,38,14.80
2011,09,22,02,39,14.70
2011,09,22,02,40,14.70
2011,09,22,02,41,14.70
2011,09,22,02,42,14.70
2011,09,22,02,43,14.70
2011,09,22,02,44,14.70
2011,09,22,02,45,14.70
2011,09,22,02,46,14.70
2011,09,22,02,47,14.70
2011,09,22,02,48,14.70
2011,09,22,02,49,14.70
2011,09,22,02,50,14.80
2011,09,22,02,51,14.80
2011,09,22,02,52,14.80
2011,09,22,02,53,14.80
2011,09,22,02,54,14.80
2011,09,22,02,55,14.80
2011,09,22,02,56,14.80
2011,09,22,02,57,14.80
2011,09,22,02,58,14.80
2011,09,22,02,59,14.70
2011,09,22,03,00,14.70
2011,09,22,03,01,14.70
2011,09,22,03,02,14.70
2011,09,22,03,03,14.70
2011,09,22,03,04,14.70
2011,09,22,03,05,14.70
2011,09,22,03,06,14.70
2011,09,22,03,07,14.70
2011,09,22,03,08,14.70
2011,09,22,03,09,14.70
2011,09,22,03,10,14.70
2011,09,22,03,11,14.70
2011,09,22,03,12,14.70
2011,09,22,03,13,14.70
2011,09,22,03,14,14.70
2011,09,22,03,15,14.70
2011,09,22,03,16,14.70
2011,09,22,03,17,14.70
2011,09,22,03,18,14.70
2011,09,22,03,19,14.70
2011,09,22,03,20,14.70
2011,09,22,03,21,14.70
2011,09,22,03,22,14.70
2011,09,22,03,23,14.70
2011,09,22,03,24,14.70
2011,09,22,03,25,14.70
2011,09,22,03,26,14.70
2011,09,22,03,27,14.70
2011,09,22,03,28,14.70
2011,09,22,03,29,14.70
2011,09,22,03,30,14.70
2011,09,22,03,31,14.70
2011,09,22,03,32,14.70
2011,09,22,03,33,14.70
2011,09,22,03,34,14.70
2011,09,22,03,35,14.70
2011,09,22,03,36,14.70
2011,09,22,03,37,14.70
2011,09,22,03,38,14.70
2011,09,22,03,39,14.70
2011,09,22,03,40,14.80
2011,09,22,03,41,14.80
2011,09,22,03,42,14.80
2011,09,22,03,43,14.80
2011,09,22,03,44,14.80
2011,09,22,03,45,14.80
2011,09,22,03,46,14.80
2011,09,22,03,47,14.80
2011,09,22,03,48,14.80
2011,09,22,03,49,14.80
2011,09,22,03,50,14.80
2011,09,22,03,51,14.80
2011,09,22,03,52,14.80
2011,09,22,03,53,14.80
2011,09,22,03,54,14.90
2011,09,22,03,55,14.90
2011,09,22,03,56,14.90
2011,09,22,03,57,14.80
2011,09,22,03,58,14.80
2011,09,22,03,59,14.80
2011,09,22,04,00,14.80
2011,09,22,04,01,14.80
2011,09,22,04,02,14.80
2011,09,22,04,03,14.70
2011,09,22,04,04,14.70
2011,09,22,04,05,14.70
2011,09,22,04,06,14.70
2011,09,22,04,07,14.70
2011,09,22,04,08,14.70
2011,09,22,04,09,14.70
2011,09,22,04,10,14.60
2011,09,22,04,11,14.60
2011,09,22,04,12,14.50
2011,09,22,04,13,14.40
2011,09,22,04,14,14.40
2011,09,22,04,15,14.40
2011,09,22,04,16,14.30
2011,09,22,04,17,14.30
2011,09,22,04,18,14.20
2011,09,22,04,19,14.10
2011,09,22,04,20,14.10
2011,09,22,04,21,14.00
2011,09,22,04,22,13.90
2011,09,22,04,23,13.90
2011,09,22,04,24,13.90
2011,09,22,04,25,13.80
2011,09,22,04,26,13.80
2011,09,22,04,27,13.80
2011,09,22,04,28,13.80
2011,09,22,04,29,13.80
2011,09,22,04,30,13.70
2011,09,22,04,31,13.70
2011,09,22,04,32,13.70
2011,09,22,04,33,13.70
2011,09,22,04,34,13.60
2011,09,22,04,35,13.60
2011,09,22,04,36,13.50
2011,09,22,04,37,13.50
2011,09,22,04,38,13.40
2011,09,22,04,39,13.40
2011,09,22,04,40,13.40
2011,09,22,04,41,13.30
2011,09,22,04,42,13.30
2011,09,22,04,43,13.30
2011,09,22,04,44,13.30
2011,09,22,04,45,13.30
2011,09,22,04,46,13.30
2011,09,22,04,47,13.30
2011,09,22,04,48,13.30
2011,09,22,04,49,13.30
2011,09,22,04,50,13.30
2011,09,22,04,51,13.30
2011,09,22,04,52,13.30
2011,09,22,04,53,13.40
2011,09,22,04,54,13.40
2011,09,22,04,55,13.40
2011,09,22,04,56,13.40
2011,09,22,04,57,13.40
2011,09,22,04,58,13.40
2011,09,22,04,59,13.40
2011,09,22,05,00,13.40
2011,09,22,05,01,13.40
2011,09,22,05,02,13.40
2011,09,22,05,03,13.40
2011,09,22,05,04,13.40
2011,09,22,05,05,13.40
2011,09,22,05,06,13.50
2011,09,22,05,07,13.50
2011,09,22,05,08,13.50
2011,09,22,05,09,13.50
2011,09,22,05,10,13.50
2011,09,22,05,11,13.60
2011,09,22,05,12,13.60
2011,09,22,05,13,13.60
2011,09,22,05,14,13.60
2011,09,22,05,15,13.60
2011,09,22,05,16,13.60
2011,09,22,05,17,13.70
2011,09,22,05,18,13.70
2011,09,22,05,19,13.70
2011,09,22,05,20,13.60
2011,09,22,05,21,13.60
2011,09,22,05,22,13.60
2011,09,22,05,23,13.60
2011,09,22,05,24,13.60
2011,09,22,05,25,13.60
2011,09,22,05,26,13.50
2011,09,22,05,27,13.50
2011,09,22,05,28,13.50
2011,09,22,05,29,13.60
2011,09,22,05,30,13.60
2011,09,22,05,31,13.60
2011,09,22,05,32,13.60
2011,09,22,05,33,13.60
2011,09,22,05,34,13.60
2011,09,22,05,35,13.60
2011,09,22,05,36,13.60
2011,09,22,05,37,13.60
2011,09,22,05,38,13.60
2011,09,22,05,39,13.60
2011,09,22,05,40,13.60
2011,09,22,05,41,13.60
2011,09,22,05,42,13.60
2011,09,22,05,43,13.60
2011,09,22,05,44,13.70
2011,09,22,05,45,13.60
2011,09,22,05,46,13.60
2011,09,22,05,47,13.60
2011,09,22,05,48,13.60
2011,09,22,05,49,13.60
2011,09,22,05,50,13.60
2011,09,22,05,51,13.60
2011,09,22,05,52,13.60
2011,09,22,05,53,13.70
2011,09,22,05,54,13.70
2011,09,22,05,55,13.70
2011,09,22,05,56,13.70
2011,09,22,05,57,13.60
2011,09,22,05,58,13.70
2011,09,22,05,59,13.60
2011,09,22,06,00,13.70
2011,09,22,06,01,13.70
2011,09,22,06,02,13.70
2011,09,22,06,03,13.70
2011,09,22,06,04,13.70
2011,09,22,06,05,13.70
2011,09,22,06,06,13.70
2011,09,22,06,07,13.70
2011,09,22,06,08,13.80
2011,09,22,06,09,13.80
2011,09,22,06,10,13.80
2011,09,22,06,11,13.80
2011,09,22,06,12,13.80
2011,09,22,06,13,13.80
2011,09,22,06,14,13.80
2011,09,22,06,15,13.80
2011,09,22,06,16,13.80
2011,09,22,06,17,13.80
2011,09,22,06,18,13.80
2011,09,22,06,19,13.80
2011,09,22,06,20,13.80
2011,09,22,06,21,13.80
2011,09,22,06,22,13.80
2011,09,22,06,23,13.80
2011,09,22,06,24,13.80
2011,09,22,06,25,13.80
2011,09,22,06,26,13.80
2011,09,22,06,27,13.80
2011,09,22,06,28,13.80
2011,09,22,06,29,13.80
2011,09,22,06,30,13.80
2011,09,22,06,31,13.80
2011,09,22,06,32,13.80
2011,09,22,06,33,13.80
2011,09,22,06,34,13.80
2011,09,22,06,35,13.80
2011,09,22,06,36,13.80
2011,09,22,06,37,13.80
2011,09,22,06,38,13.80
2011,09,22,06,39,13.80
2011,09,22,06,40,13.80
2011,09,22,06,41,13.80
2011,09,22,06,42,13.80
2011,09,22,06,43,13.90
2011,09,22,06,44,13.90
2011,09,22,06,45,13.90
2011,09,22,06,46,13.90
2011,09,22,06,47,13.90
2011,09,22,06,48,13.90
2011,09,22,06,49,13.90
2011,09,22,06,50,13.90
2011,09,22,06,51,13.90
2011,09,22,06,52,14.00
2011,09,22,06,53,14.00
2011,09,22,06,54,14.00
2011,09,22,06,55,14.00
2011,09,22,06,56,14.00
2011,09,22,06,57,14.00
2011,09,22,06,58,14.00
2011,09,22,06,59,14.00
2011,09,22,07,00,14.00
2011,09,22,07,01,14.00
2011,09,22,07,02,14.00
2011,09,22,07,03,14.00
2011,09,22,07,04,14.00
2011,09,22,07,05,14.00
2011,09,22,07,06,14.00
2011,09,22,07,07,14.00
2011,09,22,07,08,14.00
2011,09,22,07,09,14.00
2011,09,22,07,10,14.00
2011,09,22,07,11,14.00
2011,09,22,07,12,14.00
2011,09,22,07,13,14.00
2011,09,22,07,14,14.00
2011,09,22,07,15,14.00
2011,09,22,07,16,14.00
2011,09,22,07,17,14.00
2011,09,22,07,18,14.10
2011,09,22,07,19,14.10
2011,09,22,07,20,14.10
2011,09,22,07,21,14.10
2011,09,22,07,22,14.10
2011,09,22,07,23,14.10
2011,09,22,07,24,14.10
2011,09,22,07,25,14.10
2011,09,22,07,26,14.10
2011,09,22,07,27,14.10
2011,09,22,07,28,14.10
2011,09,22,07,29,14.10
2011,09,22,07,30,14.10
2011,09,22,07,31,14.10
2011,09,22,07,32,14.10
2011,09,22,07,33,14.10
2011,09,22,07,34,14.10
2011,09,22,07,35,14.10
2011,09,22,07,36,14.10
2011,09,22,07,37,14.10
2011,09,22,07,38,14.10
2011,09,22,07,39,14.10
2011,09,22,07,40,14.10
2011,09,22,07,41,14.10
2011,09,22,07,42,14.00
2011,09,22,07,43,14.00
2011,09,22,07,44,14.00
2011,09,22,07,45,14.00
2011,09,22,07,46,14.00
2011,09,22,07,47,14.00
2011,09,22,07,48,14.00
2011,09,22,07,49,14.00
2011,09,22,07,50,14.00
2011,09,22,07,51,14.00
2011,09,22,07,52,14.00
2011,09,22,07,53,14.00
2011,09,22,07,54,14.00
2011,09,22,07,55,14.00
2011,09,22,07,56,14.00
2011,09,22,07,57,14.00
2011,09,22,07,58,14.00
2011,09,22,07,59,14.00
2011,09,22,08,00,14.00
2011,09,22,08,01,14.00
2011,09,22,08,02,14.10
2011,09,22,08,03,14.00
2011,09,22,08,04,14.00
2011,09,22,08,05,14.00
2011,09,22,08,06,14.00
2011,09,22,08,07,14.00
2011,09,22,08,08,14.00
2011,09,22,08,09,14.00
2011,09,22,08,10,14.10
2011,09,22,08,11,14.10
2011,09,22,08,12,14.10
2011,09,22,08,13,14.10
2011,09,22,08,14,14.10
2011,09,22,08,15,14.10
2011,09,22,08,16,14.10
2011,09,22,08,17,14.10
2011,09,22,08,18,14.10
2011,09,22,08,19,14.10
2011,09,22,08,20,14.10
2011,09,22,08,21,14.20
2011,09,22,08,22,14.20
2011,09,22,08,23,14.20
2011,09,22,08,24,14.20
2011,09,22,08,25,14.20
2011,09,22,08,26,14.20
2011,09,22,08,27,14.30
2011,09,22,08,28,14.30
2011,09,22,08,29,14.30
2011,09,22,08,30,14.30
2011,09,22,08,31,14.30
2011,09,22,08,32,14.30
2011,09,22,08,33,14.30
2011,09,22,08,34,14.30
2011,09,22,08,35,14.30
2011,09,22,08,36,14.30
2011,09,22,08,37,14.30
2011,09,22,08,38,14.30
2011,09,22,08,39,14.30
2011,09,22,08,40,14.30
2011,09,22,08,41,14.30
2011,09,22,08,42,14.30
2011,09,22,08,43,14.30
2011,09,22,08,44,14.40
2011,09,22,08,45,14.40
2011,09,22,08,46,14.40
2011,09,22,08,47,14.40
2011,09,22,08,48,14.40
2011,09,22,08,49,14.40
2011,09,22,08,50,14.50
2011,09,22,08,51,14.50
2011,09,22,08,52,14.50
2011,09,22,08,53,14.50
2011,09,22,08,54,14.50
2011,09,22,08,55,14.50
2011,09,22,08,56,14.60
2011,09,22,08,57,14.60
2011,09,22,08,58,14.60
2011,09,22,08,59,14.60
2011,09,22,09,00,14.60
2011,09,22,09,01,14.60
2011,09,22,09,02,14.60
2011,09,22,09,03,14.60
2011,09,22,09,04,14.60
2011,09,22,09,05,14.60
2011,09,22,09,06,14.60
2011,09,22,09,07,14.60
2011,09,22,09,08,14.60
2011,09,22,09,09,14.60
2011,09,22,09,10,14.60
2011,09,22,09,11,14.60
2011,09,22,09,12,14.60
2011,09,22,09,13,14.60
2011,09,22,09,14,14.60
2011,09,22,09,15,14.60
2011,09,22,09,16,14.60
2011,09,22,09,17,14.70
2011,09,22,09,18,14.70
2011,09,22,09,19,14.70
2011,09,22,09,20,14.70
2011,09,22,09,21,14.70
2011,09,22,09,22,14.70
2011,09,22,09,23,14.70
2011,09,22,09,24,14.70
2011,09,22,09,25,14.80
2011,09,22,09,26,14.80
2011,09,22,09,27,14.80
2011,09,22,09,28,14.80
2011,09,22,09,29,14.80
2011,09,22,09,30,14.80
2011,09,22,09,31,14.80
2011,09,22,09,32,14.80
2011,09,22,09,33,14.80
2011,09,22,09,34,14.80
2011,09,22,09,35,14.80
2011,09,22,09,36,14.80
2011,09,22,09,37,14.80
2011,09,22,09,38,14.80
2011,09,22,09,39,14.90
2011,09,22,09,40,14.90
2011,09,22,09,41,15.00
2011,09,22,09,42,15.00
2011,09,22,09,43,15.00
2011,09,22,09,44,15.00
2011,09,22,09,45,15.00
2011,09,22,09,46,15.00
2011,09,22,09,47,15.00
2011,09,22,09,48,15.00
2011,09,22,09,49,15.00
2011,09,22,09,50,15.00
2011,09,22,09,51,15.00
2011,09,22,09,52,15.00
2011,09,22,09,53,15.00
2011,09,22,09,54,15.00
2011,09,22,09,55,15.10
2011,09,22,09,56,15.10
2011,09,22,09,57,15.20
2011,09,22,09,58,15.20
2011,09,22,09,59,15.20
2011,09,22,10,00,15.20
2011,09,22,10,01,15.30
2011,09,22,10,02,15.30
2011,09,22,10,03,15.30
2011,09,22,10,04,15.40
2011,09,22,10,05,15.40
2011,09,22,10,06,15.40
2011,09,22,10,07,15.40
2011,09,22,10,08,15.40
2011,09,22,10,09,15.40
2011,09,22,10,10,15.40
2011,09,22,10,11,15.40
2011,09,22,10,12,15.40
2011,09,22,10,13,15.40
2011,09,22,10,14,15.40
2011,09,22,10,15,15.40
2011,09,22,10,16,15.40
2011,09,22,10,17,15.40
2011,09,22,10,18,15.40
2011,09,22,10,19,15.40
2011,09,22,10,20,15.40
2011,09,22,10,21,15.40
2011,09,22,10,22,15.40
2011,09,22,10,23,15.40
2011,09,22,10,24,15.40
2011,09,22,10,25,15.30
2011,09,22,10,26,15.30
2011,09,22,10,27,15.40
2011,09,22,10,28,15.40
2011,09,22,10,29,15.30
2011,09,22,10,30,15.30
2011,09,22,10,31,15.30
2011,09,22,10,32,15.30
2011,09,22,10,33,15.20
2011,09,22,10,34,15.20
2011,09,22,10,35,15.20
2011,09,22,10,36,15.10
2011,09,22,10,37,15.10
2011,09,22,10,38,15.10
2011,09,22,10,39,15.10
2011,09,22,10,40,15.10
2011,09,22,10,41,15.10
2011,09,22,10,42,15.10
2011,09,22,10,43,15.10
2011,09,22,10,44,15.10
2011,09,22,10,45,15.20
2011,09,22,10,46,15.20
2011,09,22,10,47,15.20
2011,09,22,10,48,15.20
2011,09,22,10,49,15.30
2011,09,22,10,50,15.30
2011,09,22,10,51,15.20
2011,09,22,10,52,15.20
2011,09,22,10,53,15.20
2011,09,22,10,54,15.20
2011,09,22,10,55,15.30
2011,09,22,10,56,15.30
2011,09,22,10,57,15.30
2011,09,22,10,58,15.30
2011,09,22,10,59,15.40
2011,09,22,11,00,15.40
2011,09,22,11,01,15.40
2011,09,22,11,02,15.50
2011,09,22,11,03,15.50
2011,09,22,11,04,15.60
2011,09,22,11,05,15.60
2011,09,22,11,06,15.70
2011,09,22,11,07,15.70
2011,09,22,11,08,15.80
2011,09,22,11,09,15.80
2011,09,22,11,10,15.90
2011,09,22,11,11,15.90
2011,09,22,11,12,15.80
2011,09,22,11,13,15.80
2011,09,22,11,14,15.80
2011,09,22,11,15,15.80
2011,09,22,11,16,15.80
2011,09,22,11,17,15.80
2011,09,22,11,18,15.80
2011,09,22,11,19,15.80
2011,09,22,11,20,15.80
2011,09,22,11,21,15.80
2011,09,22,11,22,15.90
2011,09,22,11,23,15.90
2011,09,22,11,24,15.90
2011,09,22,11,25,15.90
2011,09,22,11,26,15.90
2011,09,22,11,27,15.90
2011,09,22,11,28,15.90
2011,09,22,11,29,15.90
2011,09,22,11,30,16.00
2011,09,22,11,31,16.00
2011,09,22,11,32,16.10
2011,09,22,11,33,16.10
2011,09,22,11,34,16.10
2011,09,22,11,35,16.10
2011,09,22,11,36,16.10
2011,09,22,11,37,16.10
2011,09,22,11,38,16.00
2011,09,22,11,39,16.00
2011,09,22,11,40,16.00
2011,09,22,11,41,16.00
2011,09,22,11,42,16.00
2011,09,22,11,43,16.10
2011,09,22,11,44,16.10
2011,09,22,11,45,16.10
2011,09,22,11,46,16.10
2011,09,22,11,47,16.10
2011,09,22,11,48,16.10
2011,09,22,11,49,16.10
2011,09,22,11,50,16.10
2011,09,22,11,51,16.20
2011,09,22,11,52,16.20
2011,09,22,11,53,16.20
2011,09,22,11,54,16.20
2011,09,22,11,55,16.20
2011,09,22,11,56,16.20
2011,09,22,11,57,16.30
2011,09,22,11,58,16.30
2011,09,22,11,59,16.30
2011,09,22,12,00,16.30
2011,09,22,12,01,16.30
2011,09,22,12,02,16.40
2011,09,22,12,03,16.40
2011,09,22,12,04,16.40
2011,09,22,12,05,16.40
2011,09,22,12,06,16.40
2011,09,22,12,07,16.40
2011,09,22,12,08,16.40
2011,09,22,12,09,16.40
2011,09,22,12,10,16.50
2011,09,22,12,11,16.50
2011,09,22,12,12,16.60
2011,09,22,12,13,16.50
2011,09,22,12,14,16.50
2011,09,22,12,15,16.50
2011,09,22,12,16,16.50
2011,09,22,12,17,16.60
2011,09,22,12,18,16.60
2011,09,22,12,19,16.60
2011,09,22,12,20,16.60
2011,09,22,12,21,16.60
2011,09,22,12,22,16.70
2011,09,22,12,23,16.70
2011,09,22,12,24,16.70
2011,09,22,12,25,16.70
2011,09,22,12,26,16.70
2011,09,22,12,27,16.70
2011,09,22,12,28,16.80
2011,09,22,12,29,16.80
2011,09,22,12,30,16.80
2011,09,22,12,31,16.80
2011,09,22,12,32,16.80
2011,09,22,12,33,16.80
2011,09,22,12,34,16.80
2011,09,22,12,35,16.80
2011,09,22,12,36,16.80
2011,09,22,12,37,16.90
2011,09,22,12,38,16.90
2011,09,22,12,39,16.90
2011,09,22,12,40,17.00
2011,09,22,12,41,17.00
2011,09,22,12,42,17.00
2011,09,22,12,43,17.10
2011,09,22,12,44,17.00
2011,09,22,12,45,17.00
2011,09,22,12,46,17.00
2011,09,22,12,47,17.00
2011,09,22,12,48,17.00
2011,09,22,12,49,17.00
2011,09,22,12,50,17.00
2011,09,22,12,51,17.10
2011,09,22,12,52,17.10
2011,09,22,12,53,17.10
2011,09,22,12,54,17.10
2011,09,22,12,55,17.10
2011,09,22,12,56,17.20
2011,09,22,12,57,17.20
2011,09,22,12,58,17.20
2011,09,22,12,59,17.20
2011,09,22,13,00,17.20
2011,09,22,13,01,17.30
2011,09,22,13,02,17.30
2011,09,22,13,03,17.30
2011,09,22,13,04,17.30
2011,09,22,13,05,17.40
2011,09,22,13,06,17.40
2011,09,22,13,07,17.50
2011,09,22,13,08,17.50
2011,09,22,13,09,17.60
2011,09,22,13,10,17.70
2011,09,22,13,11,17.80
2011,09,22,13,12,17.80
2011,09,22,13,13,17.80
2011,09,22,13,14,17.90
2011,09,22,13,15,17.90
2011,09,22,13,16,17.90
2011,09,22,13,17,17.90
2011,09,22,13,18,18.00
2011,09,22,13,19,18.00
2011,09,22,13,20,18.00
2011,09,22,13,21,18.10
2011,09,22,13,22,18.20
2011,09,22,13,23,18.20
2011,09,22,13,24,18.30
2011,09,22,13,25,18.40
2011,09,22,13,26,18.40
2011,09,22,13,27,18.40
2011,09,22,13,28,18.40
2011,09,22,13,29,18.40
2011,09,22,13,30,18.50
2011,09,22,13,31,18.50
2011,09,22,13,32,18.60
2011,09,22,13,33,18.70
2011,09,22,13,34,18.70
2011,09,22,13,35,18.80
2011,09,22,13,36,18.80
2011,09,22,13,37,18.80
2011,09,22,13,38,18.80
2011,09,22,13,39,18.80
2011,09,22,13,40,18.70
2011,09,22,13,41,18.70
2011,09,22,13,42,18.70
2011,09,22,13,43,18.70
2011,09,22,13,44,18.70
2011,09,22,13,45,18.70
2011,09,22,13,46,18.70
2011,09,22,13,47,18.80
2011,09,22,13,48,18.80
2011,09,22,13,49,18.90
2011,09,22,13,50,18.90
2011,09,22,13,51,18.90
2011,09,22,13,52,18.90
2011,09,22,13,53,18.90
2011,09,22,13,54,18.90
2011,09,22,13,55,18.90
2011,09,22,13,56,19.00
2011,09,22,13,57,19.00
2011,09,22,13,58,19.00
2011,09,22,13,59,18.80
2011,09,22,14,00,18.80
2011,09,22,14,01,18.70
2011,09,22,14,02,18.70
2011,09,22,14,03,18.70
2011,09,22,14,04,18.70
2011,09,22,14,05,18.70
2011,09,22,14,06,18.70
2011,09,22,14,07,18.80
2011,09,22,14,08,18.80
2011,09,22,14,09,18.90
2011,09,22,14,10,19.00
2011,09,22,14,11,19.00
2011,09,22,14,12,19.00
2011,09,22,14,13,19.10
2011,09,22,14,14,19.00
2011,09,22,14,15,19.10
2011,09,22,14,16,19.10
2011,09,22,14,17,19.10
2011,09,22,14,18,19.10
2011,09,22,14,19,19.10
2011,09,22,14,20,19.10
2011,09,22,14,21,19.10
2011,09,22,14,22,19.20
2011,09,22,14,23,19.20
2011,09,22,14,24,19.20
2011,09,22,14,25,19.20
2011,09,22,14,26,19.20
2011,09,22,14,27,19.30
2011,09,22,14,28,19.30
2011,09,22,14,29,19.30
2011,09,22,14,30,19.30
2011,09,22,14,31,19.20
2011,09,22,14,32,19.20
2011,09,22,14,33,19.20
2011,09,22,14,34,19.20
2011,09,22,14,35,19.20
2011,09,22,14,36,19.20
2011,09,22,14,37,19.20
2011,09,22,14,38,19.20
2011,09,22,14,39,19.10
2011,09,22,14,40,19.00
2011,09,22,14,41,19.00
2011,09,22,14,42,19.00
2011,09,22,14,43,18.90
2011,09,22,14,44,18.90
2011,09,22,14,45,18.90
2011,09,22,14,46,18.90
2011,09,22,14,47,18.90
2011,09,22,14,48,18.90
2011,09,22,14,49,18.90
2011,09,22,14,50,18.90
2011,09,22,14,51,18.90
2011,09,22,14,52,18.90
2011,09,22,14,53,18.90
2011,09,22,14,54,18.90
2011,09,22,14,55,18.90
2011,09,22,14,56,18.90
2011,09,22,14,57,19.00
2011,09,22,14,58,19.00
2011,09,22,14,59,19.10
2011,09,22,15,00,19.10
2011,09,22,15,01,19.20
2011,09,22,15,02,19.20
2011,09,22,15,03,19.10
2011,09,22,15,04,19.10
2011,09,22,15,05,19.10
2011,09,22,15,06,19.10
2011,09,22,15,07,19.10
2011,09,22,15,08,19.10
2011,09,22,15,09,19.10
2011,09,22,15,10,19.20
2011,09,22,15,11,19.20
2011,09,22,15,12,19.20
2011,09,22,15,13,19.20
2011,09,22,15,14,19.20
2011,09,22,15,15,19.20
2011,09,22,15,16,19.20
2011,09,22,15,17,19.20
2011,09,22,15,18,19.20
2011,09,22,15,19,19.20
2011,09,22,15,20,19.20
2011,09,22,15,21,19.20
2011,09,22,15,22,19.20
2011,09,22,15,23,19.20
2011,09,22,15,24,19.20
2011,09,22,15,25,19.20
2011,09,22,15,26,19.20
2011,09,22,15,27,19.30
2011,09,22,15,28,19.30
2011,09,22,15,29,19.30
2011,09,22,15,30,19.20
2011,09,22,15,31,19.20
2011,09,22,15,32,19.10
2011,09,22,15,33,19.10
2011,09,22,15,34,19.10
2011,09,22,15,35,19.10
2011,09,22,15,36,19.10
2011,09,22,15,37,19.10
2011,09,22,15,38,19.10
2011,09,22,15,39,19.20
2011,09,22,15,40,19.20
2011,09,22,15,41,19.10
2011,09,22,15,42,19.00
2011,09,22,15,43,18.90
2011,09,22,15,44,18.90
2011,09,22,15,45,18.90
2011,09,22,15,46,18.90
2011,09,22,15,47,18.90
2011,09,22,15,48,18.90
2011,09,22,15,49,18.90
2011,09,22,15,50,18.90
2011,09,22,15,51,19.00
2011,09,22,15,52,19.00
2011,09,22,15,53,19.00
2011,09,22,15,54,19.10
2011,09,22,15,55,19.00
2011,09,22,15,56,19.10
2011,09,22,15,57,19.10
2011,09,22,15,58,19.10
2011,09,22,15,59,19.10
2011,09,22,16,00,19.10
2011,09,22,16,01,19.20
2011,09,22,16,02,19.20
2011,09,22,16,03,19.20
2011,09,22,16,04,19.20
2011,09,22,16,05,19.20
2011,09,22,16,06,19.20
2011,09,22,16,07,19.20
2011,09,22,16,08,19.20
2011,09,22,16,09,19.20
2011,09,22,16,10,19.20
2011,09,22,16,11,19.10
2011,09,22,16,12,19.10
2011,09,22,16,13,19.10
2011,09,22,16,14,19.20
2011,09,22,16,15,19.10
2011,09,22,16,16,19.10
2011,09,22,16,17,19.10
2011,09,22,16,18,19.00
2011,09,22,16,19,19.00
2011,09,22,16,20,19.10
2011,09,22,16,21,19.10
2011,09,22,16,22,19.20
2011,09,22,16,23,19.20
2011,09,22,16,24,19.20
2011,09,22,16,25,19.20
2011,09,22,16,26,19.20
2011,09,22,16,27,19.10
2011,09,22,16,28,19.20
2011,09,22,16,29,19.20
2011,09,22,16,30,19.20
2011,09,22,16,31,19.30
2011,09,22,16,32,19.30
2011,09,22,16,33,19.30
2011,09,22,16,34,19.30
2011,09,22,16,35,19.30
2011,09,22,16,36,19.30
2011,09,22,16,37,19.30
2011,09,22,16,38,19.40
2011,09,22,16,39,19.40
2011,09,22,16,40,19.50
2011,09,22,16,41,19.50
2011,09,22,16,42,19.60
2011,09,22,16,43,19.60
2011,09,22,16,44,19.70
2011,09,22,16,45,19.70
2011,09,22,16,46,19.80
2011,09,22,16,47,19.80
2011,09,22,16,48,19.80
2011,09,22,16,49,19.80
2011,09,22,16,50,19.80
2011,09,22,16,51,19.80
2011,09,22,16,52,19.70
2011,09,22,16,53,19.80
2011,09,22,16,54,19.80
2011,09,22,16,55,19.80
2011,09,22,16,56,19.80
2011,09,22,16,57,19.90
2011,09,22,16,58,19.90
2011,09,22,16,59,20.00
2011,09,22,17,00,20.00
2011,09,22,17,01,20.00
2011,09,22,17,02,20.10
2011,09,22,17,03,20.10
2011,09,22,17,04,20.10
2011,09,22,17,05,20.10
2011,09,22,17,06,20.10
2011,09,22,17,07,20.10
2011,09,22,17,08,20.10
2011,09,22,17,09,20.10
2011,09,22,17,10,20.20
2011,09,22,17,11,20.20
2011,09,22,17,12,20.20
2011,09,22,17,13,20.30
2011,09,22,17,14,20.30
2011,09,22,17,15,20.30
2011,09,22,17,16,20.30
2011,09,22,17,17,20.20
2011,09,22,17,18,20.20
2011,09,22,17,19,20.20